Location: Melbourne
(37.8170°S, 144.9670°E)
Time: 14:02:10
(UTC+10:00)

ISS - Visible Passes

Search period start: 20 August 2017 00:00
Search period end: 30 August 2017 00:00
Orbit: 401 x 408 km, 51.6° (Epoch: 20 August)

Date Brightness Start Highest point End Pass type
(mag) Time Alt. Az. Time Alt. Az. Time Alt. Az.
20 Aug -3.9 05:30:45 60° W 05:31:10 70° NW 05:34:29 10° NE visible
21 Aug -1.1 04:41:08 19° ENE 04:41:08 19° ENE 04:42:13 10° ENE visible
21 Aug -1.7 06:13:50 11° WNW 06:15:03 13° NW 06:16:40 10° NNW visible
22 Aug -1.9 05:24:20 19° N 05:24:20 19° N 05:25:48 10° N visible
25 Aug -2.2 19:21:46 10° NNW 19:23:32 23° N 19:23:32 23° N visible
26 Aug -1.8 18:30:36 10° NNE 18:32:32 15° NE 18:34:07 11° E visible
26 Aug -1.3 20:05:28 10° WNW 20:06:49 22° WNW 20:06:49 22° WNW visible
27 Aug -3.9 19:13:04 10° NW 19:16:20 81° NE 19:17:15 45° ESE visible
28 Aug -3.1 18:21:01 10° NNW 18:24:05 37° NE 18:27:12 10° ESE visible
28 Aug -1.6 19:57:52 10° W 20:00:15 23° SW 20:00:15 23° SW visible
29 Aug -2.6 19:05:01 10° WNW 19:08:09 40° SW 19:10:26 16° SSE visible
